Location: Oklahoma City
(35.4680°N, 97.5160°W)
Time: 08:03:29
(UTC-05:00)

ISS - Visible Passes

Search period start: 01 November 2014 00:00
Search period end: 10 November 2014 23:00
Orbit: 412 x 417 km, 51.6° (Epoch: 01 November)

Date Brightness Start Highest point End Pass type
(mag) Time Alt. Az. Time Alt. Az. Time Alt. Az.
07 Nov -0.8 06:05:01 10° S 06:07:45 24° SE 06:10:30 10° ENE visible
08 Nov -0.1 05:16:58 10° SSE 05:18:30 13° SE 05:20:03 10° E visible
09 Nov -3.3 06:02:04 10° SW 06:05:22 82° SE 06:08:41 10° NE visible
10 Nov -2.0 05:15:10 33° SSE 05:15:56 39° SE 05:19:03 10° ENE visible
